Location: *
(40.4270°N, 9.4940°E)
Time: 08:48:54
(UTC+02:00)

Okean 2 - Visible Passes

Search period start: 25 July 2017 00:00
Search period end: 04 August 2017 00:00
Orbit: 562 x 578 km, 82.5° (Epoch: 24 July)

Date Brightness Start Highest point End Pass type
(mag) Time Alt. Az. Time Alt. Az. Time Alt. Az.
25 Jul 5.6 00:50:18 10° NNE 00:52:17 19° NE 00:52:17 19° NE visible
25 Jul 5.6 02:26:56 10° NNW 02:28:24 18° NW 02:28:24 18° NW visible
26 Jul 5.5 00:52:02 10° NNE 00:54:08 22° NE 00:54:08 22° NE visible
26 Jul 5.9 02:29:14 10° NW 02:30:15 15° NW 02:30:15 15° NW visible
27 Jul 5.3 00:53:50 10° N 00:55:59 25° NNE 00:55:59 25° NNE visible
27 Jul 6.1 02:31:41 10° NW 02:32:07 12° NW 02:32:07 12° NW visible
28 Jul 5.3 00:55:42 10° N 00:57:52 28° NNE 00:57:52 28° NNE visible
29 Jul 5.2 00:57:36 10° N 00:59:45 29° N 00:59:45 29° N visible
30 Jul 5.3 00:59:33 10° N 01:01:38 29° N 01:01:38 29° N visible
31 Jul 5.4 01:01:33 10° N 01:03:33 27° NNW 01:03:33 27° NNW visible
01 Aug 5.5 01:03:36 10° NNW 01:05:28 25° NNW 01:05:28 25° NNW visible
01 Aug 5.9 23:30:20 10° NE 23:31:16 12° NE 23:31:16 12° NE visible
02 Aug 5.6 01:05:41 10° NNW 01:07:23 22° NW 01:07:23 22° NW visible
02 Aug 5.7 23:31:46 10° NNE 23:33:12 15° NE 23:33:12 15° NE visible
03 Aug 5.8 01:07:50 10° NNW 01:09:19 19° NW 01:09:19 19° NW visible
03 Aug 5.5 23:33:23 10° NNE 23:35:08 18° NE 23:35:08 18° NE visible
